Gene Autry, OK

1:53 AM CDT on August 29, 2016 (GMT -0500)
Ardmore Municipal

Weather History for KADM - September, 2014

Change the Weather History Date:

Sunday, September 7, 2014

  Actual Average Record
Temperature  
Mean Temperature 74 °F -  
Max Temperature 82 °F 87 °F 104 °F (1998)
Min Temperature 66 °F 66 °F 50 °F (2011)
Cooling Degree Days 9    
Growing Degree Days 24 (Base 50)    
Moisture  
Dew Point 66 °F    
Average Humidity 91    
Maximum Humidity 98    
Minimum Humidity 66    
Precipitation  
Precipitation 0.00 in - - ()
Sea Level Pressure  
Sea Level Pressure 30.11 in    
Wind  
Wind Speed 6 mph (NNE)    
Max Wind Speed 9 mph    
Max Gust Speed -    
Visibility 10 miles    
Events      
Averages and records for this station are not official NWS values.
T = Trace of Precipitation, MM = Missing Value Source: NWS Daily Summary

Daily Weather History Graph

Daily Weather History Graph

Search for Another Location

Airport or City:

Trip Planner

Search our weather history database for the weather conditions in past years. The results will help you decide how hot, cold, wet, or windy it might be!

Date:

Astronomy

Sep. 07, 2014 Rise Set
Actual Time 7:05 AM CDT 7:45 PM CDT
Civil Twilight 6:40 AM CDT 8:11 PM CDT
Nautical Twilight 6:10 AM CDT 8:41 PM CDT
Astronomical Twilight 5:39 AM CDT 9:11 PM CDT
Moon 6:44 PM CDT (9/7) 5:22 AM CDT (9/7)
Length of Visible Light 13h 30m
Length of Day
12h 40m
Waxing Gibbous, 97% of the Moon is Illuminated
Sep 7
Waxing Gibbous
Sep 8
Full
Sep 15
Last Quarter
Sep 24
New
Oct 1
First Quarter

Hourly Weather History & Observations

Time (CDT) Temp. Heat Index Dew Point Humidity Pressure Visibility Wind Dir Wind Speed Gust Speed Precip Events Conditions
12:15 AM 68.0 °F - 65.8 °F 93% 30.14 in 10.0 mi NNE 9.2 mph - N/A   Overcast
12:35 AM 68.0 °F - 65.8 °F 93% 30.14 in 10.0 mi North 3.5 mph - N/A   Overcast
12:55 AM 68.0 °F - 65.8 °F 93% 30.14 in 10.0 mi NNE 6.9 mph - N/A   Overcast
1:15 AM 68.0 °F - 65.7 °F 92% 30.14 in 10.0 mi NNE 6.9 mph - N/A   Overcast
1:35 AM 68.0 °F - 65.3 °F 91% 30.13 in 10.0 mi NNE 4.6 mph - N/A   Mostly Cloudy
1:55 AM 68.0 °F - 65.1 °F 90% 30.14 in 10.0 mi ENE 3.5 mph - N/A   Mostly Cloudy
2:15 AM 67.8 °F - 65.1 °F 91% 30.13 in 10.0 mi North 4.6 mph - N/A   Mostly Cloudy
2:35 AM 67.6 °F - 65.3 °F 92% 30.12 in 10.0 mi North 4.6 mph - N/A   Overcast
2:55 AM 67.5 °F - 65.3 °F 93% 30.12 in 10.0 mi NNE 5.8 mph - N/A   Overcast
3:15 AM 67.5 °F - 65.3 °F 93% 30.12 in 10.0 mi NNE 4.6 mph - N/A   Light Drizzle
3:35 AM 67.5 °F - 65.3 °F 93% 30.12 in 10.0 mi North 5.8 mph - N/A   Overcast
3:55 AM 67.3 °F - 65.1 °F 93% 30.12 in 10.0 mi North 4.6 mph - N/A   Overcast
4:15 AM 67.1 °F - 65.3 °F 94% 30.10 in 10.0 mi NNE 6.9 mph - N/A   Drizzle
4:35 AM 67.1 °F - 65.3 °F 94% 30.10 in 10.0 mi North 6.9 mph - N/A   Overcast
4:55 AM 67.1 °F - 65.1 °F 93% 30.10 in 7.0 mi North 8.1 mph - N/A   Overcast
5:15 AM 67.1 °F - 65.3 °F 94% 30.10 in 10.0 mi North 6.9 mph - N/A   Overcast
5:35 AM 67.1 °F - 65.3 °F 94% 30.10 in 10.0 mi North 4.6 mph - N/A   Mostly Cloudy
5:55 AM 67.1 °F - 64.9 °F 93% 30.10 in 10.0 mi NNE 5.8 mph - N/A   Overcast
6:15 AM 67.1 °F - 64.8 °F 92% 30.11 in 10.0 mi NNE 8.1 mph - N/A   Overcast
6:35 AM 67.1 °F - 64.8 °F 92% 30.12 in 10.0 mi NNE 4.6 mph - N/A   Overcast
6:55 AM 66.2 °F - 64.4 °F 94% 30.12 in 10.0 mi North 6.9 mph - N/A   Overcast
7:55 AM 66.2 °F - 64.4 °F 94% 30.12 in 10.0 mi NE 3.5 mph - N/A   Overcast
8:55 AM 68.0 °F - 64.4 °F 88% 30.12 in 10.0 mi NNE 5.8 mph - N/A   Overcast
9:55 AM 69.8 °F - 64.4 °F 83% 30.13 in 10.0 mi NNE 4.6 mph - N/A   Overcast
1:55 PM 82.4 °F 86.3 °F 69.8 °F 66% 30.09 in 10.0 mi East 5.8 mph - N/A   Mostly Cloudy
2:55 PM 78.8 °F - 71.6 °F 78% 30.08 in 10.0 mi SSE 8.1 mph - N/A   Overcast
3:55 PM 80.6 °F 84.6 °F 71.6 °F 74% 30.06 in 10.0 mi SE 5.8 mph - N/A   Overcast
10:15 PM 71.6 °F - 70.2 °F 95% 30.05 in 10.0 mi Calm Calm - N/A   Clear
10:55 PM 71.1 °F - 70.0 °F 96% 30.05 in 10.0 mi Calm Calm - N/A   Clear
11:15 PM 71.2 °F - 70.2 °F 96% 30.05 in 10.0 mi Calm Calm - N/A   Clear
11:35 PM 71.1 °F - 70.0 °F 96% 30.05 in 10.0 mi Calm Calm - N/A   Clear
11:55 PM 70.9 °F - 70.2 °F 98% 30.05 in 7.0 mi Calm Calm - N/A   Clear